2016-02-04 00:01:46 r, 19.08m,0000000002Hz,0000236052c,0000000.512s, 004.8C,00002191
2016-02-04 00:11:46 r, 19.04m,0000000002Hz,0000226551c,0000000.492s, 004.8C,00002191
2016-02-04 00:21:46 r, 18.98m,0000000002Hz,0000214026c,0000000.464s, 004.8C,00002191
2016-02-04 00:31:46 r, 19.06m,0000000002Hz,0000230384c,0000000.500s, 005.1C,00002191
2016-02-04 00:41:46 r, 19.28m,0000000002Hz,0000283327c,0000000.615s, 005.1C,00002191
2016-02-04 00:51:46 r, 19.25m,0000000002Hz,0000275750c,0000000.598s, 005.1C,00002191
2016-02-04 01:01:47 r, 19.20m,0000000002Hz,0000263098c,0000000.571s, 004.8C,00002191
2016-02-04 01:11:46 r, 19.23m,0000000002Hz,0000268721c,0000000.583s, 004.8C,00002191
2016-02-04 01:21:46 r, 19.29m,0000000002Hz,0000285248c,0000000.619s, 004.8C,00002191
2016-02-04 01:31:47 r, 19.39m,0000000002Hz,0000313990c,0000000.681s, 004.8C,00002191
2016-02-04 01:41:46 r, 19.40m,0000000002Hz,0000316836c,0000000.688s, 004.8C,00002191
2016-02-04 01:51:46 r, 19.58m,0000000001Hz,0000371440c,0000000.806s, 004.8C,00002191
2016-02-04 02:01:46 r, 19.91m,0000000001Hz,0000500114c,0000001.085s, 004.8C,00002191
2016-02-04 02:11:46 r, 20.16m,0000000001Hz,0000633680c,0000001.375s, 004.5C,00002191
2016-02-04 02:21:46 r, 20.24m,0000000001Hz,0000676580c,0000001.468s, 004.5C,00002191
2016-02-04 02:31:46 r, 20.57m,0000000000Hz,0000912711c,0000001.981s, 003.8C,00002191
2016-02-04 02:41:47 r, 20.65m,0000000001Hz,0000989428c,0000002.147s, 003.5C,00002191
2016-02-04 02:51:46 r, 20.66m,0000000001Hz,0000992782c,0000002.154s, 002.9C,00002191
2016-02-04 03:01:46 r, 20.59m,0000000001Hz,0000933515c,0000002.026s, 001.9C,00002191
2016-02-04 03:11:46 r, 20.68m,0000000000Hz,0001007778c,0000002.187s, 001.6C,00002191
2016-02-04 03:21:46 r, 20.62m,0000000000Hz,0000959865c,0000002.083s, 000.9C,00002191
2016-02-04 03:31:46 r, 20.71m,0000000000Hz,0001038616c,0000002.254s, 000.3C,00002191
2016-02-04 03:41:47 r, 20.82m,0000000001Hz,0001147285c,0000002.490s, 000.1C,00002191
2016-02-04 03:51:46 r, 20.94m,0000000001Hz,0001279213c,0000002.776s,-000.4C,00002191
2016-02-04 04:01:46 r, 21.04m,0000000000Hz,0001395571c,0000003.029s,-000.4C,00002191
2016-02-04 04:11:46 r, 19.93m,0000000001Hz,0000507975c,0000001.102s,-000.7C,00002191
2016-02-04 04:21:46 r, 19.27m,0000000002Hz,0000277426c,0000000.602s,-000.7C,00002191
2016-02-04 04:31:46 r, 19.34m,0000000002Hz,0000298669c,0000000.648s, 000.1C,00002191
2016-02-04 04:41:46 r, 18.98m,0000000002Hz,0000215193c,0000000.467s, 000.6C,00002191
2016-02-04 04:51:46 r, 18.96m,0000000002Hz,0000211842c,0000000.460s, 001.6C,00002191
2016-02-04 05:01:46 r, 18.94m,0000000002Hz,0000207425c,0000000.450s, 002.5C,00002191
2016-02-04 05:11:47 r, 18.96m,0000000002Hz,0000209090c,0000000.454s, 002.9C,00002191
2016-02-04 05:21:46 r, 19.05m,0000000002Hz,0000229355c,0000000.498s, 003.2C,00002191
2016-02-04 05:31:46 r, 19.22m,0000000002Hz,0000267912c,0000000.581s, 003.2C,00002191
2016-02-04 05:41:46 r, 19.24m,0000000002Hz,0000273574c,0000000.594s, 003.2C,00002191
2016-02-04 05:51:46 r, 19.18m,0000000002Hz,0000256183c,0000000.556s, 003.2C,00002191
2016-02-04 06:01:46 r, 19.80m,0000000001Hz,0000453387c,0000000.984s, 002.9C,00002191
2016-02-04 06:11:46 r, 19.71m,0000000001Hz,0000415843c,0000000.902s, 002.5C,00002191
2016-02-04 06:21:46 r, 19.63m,0000000001Hz,0000385827c,0000000.837s, 002.2C,00002191
2016-02-04 06:31:46 r, 19.64m,0000000001Hz,0000390866c,0000000.848s, 001.9C,00002191
2016-02-04 06:41:46 r, 19.34m,0000000001Hz,0000295529c,0000000.641s, 001.9C,00002191
2016-02-04 06:51:46 r, 18.64m,0000000003Hz,0000157532c,0000000.342s, 001.6C,00002191
2016-02-04 07:01:46 r, 17.38m,0000000010Hz,0000049046c,0000000.106s, 001.6C,00002191
2016-02-04 07:11:46 r, 15.76m,0000000042Hz,0000011008c,0000000.024s, 001.2C,00002191
2016-02-04 07:21:46 r, 13.62m,0000000301Hz,0000000000c,0000000.000s, 000.6C,00002191
2016-02-04 07:31:46 r, 11.57m,0000001991Hz,0000000000c,0000000.000s,-000.4C,00002191
2016-02-04 07:41:46 r, 09.79m,0000010293Hz,0000000000c,0000000.000s,-001.0C,00002191
2016-02-04 07:51:46 r, 08.44m,0000035595Hz,0000000000c,0000000.000s,-001.7C,00002191
2016-02-04 08:01:46 r, 07.49m,0000084995Hz,0000000000c,0000000.000s,-002.3C,00002191
2016-02-04 08:11:47 r, 06.75m,0000169415Hz,0000000000c,0000000.000s,-002.6C,00002191
2016-02-04 08:21:46 r, 06.14m,0000296353Hz,0000000000c,0000000.000s,-002.6C,00002191
2016-02-04 08:31:46 r, 00.00m,0000442040Hz,0000000000c,0000000.000s,-001.3C,00002191
2016-02-04 08:41:48 r, 00.00m,0000595100Hz,0000000000c,0000000.000s, 000.1C,00002191
2016-02-04 08:51:46 r, 00.00m,0000597626Hz,0000000000c,0000000.000s, 001.6C,00002191
2016-02-04 09:01:46 r, 00.00m,0000597562Hz,0000000000c,0000000.000s, 002.5C,00002191
2016-02-04 09:11:46 r, 00.00m,0000597442Hz,0000000000c,0000000.000s, 003.8C,00002191
2016-02-04 09:21:46 r, 00.00m,0000597537Hz,0000000000c,0000000.000s, 002.9C,00002191
2016-02-04 09:31:46 r, 00.00m,0000597565Hz,0000000000c,0000000.000s, 002.5C,00002191
2016-02-04 09:41:46 r, 00.00m,0000597555Hz,0000000000c,0000000.000s, 002.9C,00002191
2016-02-04 09:51:46 r, 00.00m,0000597416Hz,0000000000c,0000000.000s, 003.5C,00002191
2016-02-04 10:01:46 r, 00.00m,0000597440Hz,0000000000c,0000000.000s, 003.8C,00002191
2016-02-04 10:11:46 r, 00.00m,0000597417Hz,0000000000c,0000000.000s, 005.1C,00002191
2016-02-04 10:21:46 r, 00.00m,0000597212Hz,0000000000c,0000000.000s, 007.4C,00002191
2016-02-04 10:31:46 r, 00.00m,0000597133Hz,0000000000c,0000000.000s, 008.3C,00002191
2016-02-04 10:41:46 r, 00.00m,0000597109Hz,0000000000c,0000000.000s, 009.3C,00002191
2016-02-04 10:51:46 r, 00.00m,0000596949Hz,0000000000c,0000000.000s, 010.6C,00002191
2016-02-04 11:01:46 r, 00.00m,0000596881Hz,0000000000c,0000000.000s, 011.9C,00002191
2016-02-04 11:11:46 r, 00.00m,0000596818Hz,0000000000c,0000000.000s, 012.8C,00002191
2016-02-04 11:21:46 r, 00.00m,0000596758Hz,0000000000c,0000000.000s, 012.8C,00002191
2016-02-04 11:31:46 r, 00.00m,0000596886Hz,0000000000c,0000000.000s, 012.2C,00002191
2016-02-04 11:41:46 r, 00.00m,0000596997Hz,0000000000c,0000000.000s, 011.2C,00002191
2016-02-04 11:51:46 r, 00.00m,0000597079Hz,0000000000c,0000000.000s, 010.6C,00002191
2016-02-04 12:01:46 r, 00.00m,0000597025Hz,0000000000c,0000000.000s, 009.9C,00002191
2016-02-04 12:11:46 r, 00.00m,0000596978Hz,0000000000c,0000000.000s, 010.3C,00002191
2016-02-04 12:21:46 r, 00.00m,0000596927Hz,0000000000c,0000000.000s, 010.6C,00002191
2016-02-04 12:31:46 r, 00.00m,0000596818Hz,0000000000c,0000000.000s, 010.6C,00002191
2016-02-04 12:41:46 r, 00.00m,0000596908Hz,0000000000c,0000000.000s, 010.6C,00002191
2016-02-04 12:51:46 r, 00.00m,0000596952Hz,0000000000c,0000000.000s, 010.9C,00002191
2016-02-04 13:01:46 r, 00.00m,0000596823Hz,0000000000c,0000000.000s, 010.9C,00002191
2016-02-04 13:11:45 r, 00.00m,0000596896Hz,0000000000c,0000000.000s, 010.6C,00002191
2016-02-04 13:21:46 r, 00.00m,0000596916Hz,0000000000c,0000000.000s, 010.3C,00002191
2016-02-04 13:31:46 r, 00.00m,0000596906Hz,0000000000c,0000000.000s, 009.9C,00002191
2016-02-04 13:41:46 r, 00.00m,0000596906Hz,0000000000c,0000000.000s, 009.9C,00002191
2016-02-04 13:51:45 r, 00.00m,0000597013Hz,0000000000c,0000000.000s, 009.9C,00002191
2016-02-04 14:01:46 r, 00.00m,0000596969Hz,0000000000c,0000000.000s, 009.9C,00002191
2016-02-04 14:11:45 r, 00.00m,0000597026Hz,0000000000c,0000000.000s, 009.6C,00002191
2016-02-04 14:21:46 r, 00.00m,0000596959Hz,0000000000c,0000000.000s, 009.6C,00002191
2016-02-04 14:31:45 r, 00.00m,0000597086Hz,0000000000c,0000000.000s, 009.6C,00002191
2016-02-04 14:41:46 r, 00.00m,0000596923Hz,0000000000c,0000000.000s, 009.3C,00002191
2016-02-04 14:51:46 r, 00.00m,0000597023Hz,0000000000c,0000000.000s, 009.3C,00002191
2016-02-04 15:01:46 r, 00.00m,0000596958Hz,0000000000c,0000000.000s, 009.0C,00002191
2016-02-04 15:11:47 r, 00.00m,0000597098Hz,0000000000c,0000000.000s, 009.3C,00002191
2016-02-04 15:21:45 r, 00.00m,0000597140Hz,0000000000c,0000000.000s, 008.7C,00002191
2016-02-04 15:31:46 r, 00.00m,0000597151Hz,0000000000c,0000000.000s, 008.7C,00002191
2016-02-04 15:41:45 r, 00.00m,0000597173Hz,0000000000c,0000000.000s, 009.0C,00002191
2016-02-04 15:51:46 r, 00.00m,0000597066Hz,0000000000c,0000000.000s, 008.7C,00002191
2016-02-04 16:01:45 r, 00.00m,0000597120Hz,0000000000c,0000000.000s, 008.3C,00002191
2016-02-04 16:11:46 r, 00.00m,0000597168Hz,0000000000c,0000000.000s, 008.0C,00002191
2016-02-04 16:21:46 r, 00.00m,0000597254Hz,0000000000c,0000000.000s, 007.7C,00002191
2016-02-04 16:31:46 r, 00.00m,0000597254Hz,0000000000c,0000000.000s, 007.4C,00002191
2016-02-04 16:41:46 r, 00.00m,0000567313Hz,0000000000c,0000000.000s, 007.0C,00002191
2016-02-04 16:51:45 r, 00.00m,0000438550Hz,0000000000c,0000000.000s, 006.7C,00002191
2016-02-04 17:01:45 r, 06.02m,0000331282Hz,0000000000c,0000000.000s, 006.4C,00002191
2016-02-04 17:11:46 r, 06.50m,0000212415Hz,0000000000c,0000000.000s, 006.1C,00002191
2016-02-04 17:21:46 r, 07.12m,0000119658Hz,0000000000c,0000000.000s, 005.8C,00002191
2016-02-04 17:31:46 r, 08.06m,0000050232Hz,0000000000c,0000000.000s, 005.4C,00002191
2016-02-04 17:41:46 r, 09.40m,0000014782Hz,0000000000c,0000000.000s, 005.1C,00002191
2016-02-04 17:51:46 r, 11.11m,0000003035Hz,0000000000c,0000000.000s, 004.8C,00002191
2016-02-04 18:01:46 r, 13.11m,0000000481Hz,0000000000c,0000000.000s, 004.5C,00002191
2016-02-04 18:11:46 r, 15.13m,0000000076Hz,0000006171c,0000000.013s, 004.5C,00002191
2016-02-04 18:21:45 r, 16.85m,0000000016Hz,0000030114c,0000000.065s, 004.1C,00002191
2016-02-04 18:31:46 r, 18.03m,0000000005Hz,0000089362c,0000000.194s, 004.1C,00002191
2016-02-04 18:41:45 r, 18.54m,0000000003Hz,0000143616c,0000000.312s, 004.1C,00002191
2016-02-04 18:51:45 r, 18.53m,0000000003Hz,0000141381c,0000000.307s, 004.1C,00002191
2016-02-04 19:01:46 r, 18.36m,0000000004Hz,0000120953c,0000000.262s, 004.1C,00002191
2016-02-04 19:11:46 r, 18.22m,0000000004Hz,0000106608c,0000000.231s, 004.1C,00002191
2016-02-04 19:21:45 r, 18.15m,0000000004Hz,0000099932c,0000000.217s, 004.1C,00002191
2016-02-04 19:31:45 r, 18.23m,0000000004Hz,0000107874c,0000000.234s, 004.5C,00002191
2016-02-04 19:41:46 r, 18.35m,0000000004Hz,0000120037c,0000000.260s, 004.5C,00002191
2016-02-04 19:51:46 r, 18.46m,0000000003Hz,0000132725c,0000000.288s, 004.5C,00002191
2016-02-04 20:01:46 r, 18.50m,0000000004Hz,0000138024c,0000000.300s, 004.8C,00002191
2016-02-04 20:11:46 r, 18.63m,0000000003Hz,0000156428c,0000000.339s, 004.8C,00002191
2016-02-04 20:21:46 r, 18.47m,0000000004Hz,0000134432c,0000000.292s, 004.8C,00002191
2016-02-04 20:31:46 r, 18.38m,0000000004Hz,0000123722c,0000000.268s, 004.8C,00002191
2016-02-04 20:41:45 r, 18.31m,0000000004Hz,0000116055c,0000000.252s, 004.8C,00002191
2016-02-04 20:51:46 r, 18.08m,0000000005Hz,0000093523c,0000000.203s, 005.1C,00002191
2016-02-04 21:01:46 r, 18.16m,0000000005Hz,0000100703c,0000000.219s, 005.1C,00002191
2016-02-04 21:11:46 r, 18.30m,0000000004Hz,0000114370c,0000000.248s, 005.1C,00002191
2016-02-04 21:21:47 r, 18.41m,0000000004Hz,0000126455c,0000000.274s, 005.1C,00002191
2016-02-04 21:31:46 r, 18.57m,0000000003Hz,0000146833c,0000000.319s, 005.1C,00002191
2016-02-04 21:41:45 r, 18.70m,0000000003Hz,0000165055c,0000000.358s, 005.4C,00002191
2016-02-04 21:51:48 r, 18.84m,0000000002Hz,0000187470c,0000000.407s, 005.4C,00002191
2016-02-04 22:01:46 r, 18.71m,0000000003Hz,0000167931c,0000000.364s, 005.4C,00002191
2016-02-04 22:11:46 r, 18.63m,0000000003Hz,0000155554c,0000000.338s, 005.4C,00002191
2016-02-04 22:21:46 r, 18.48m,0000000003Hz,0000135413c,0000000.294s, 005.4C,00002191
2016-02-04 22:31:45 r, 18.51m,0000000003Hz,0000139293c,0000000.302s, 005.4C,00002191
2016-02-04 22:41:45 r, 18.58m,0000000003Hz,0000148228c,0000000.322s, 005.4C,00002191
2016-02-04 22:51:47 r, 18.58m,0000000003Hz,0000147750c,0000000.321s, 005.4C,00002191
2016-02-04 23:01:46 r, 18.44m,0000000003Hz,0000130705c,0000000.284s, 005.4C,00002191
2016-02-04 23:11:45 r, 18.39m,0000000004Hz,0000124692c,0000000.271s, 005.4C,00002191
2016-02-04 23:21:46 r, 18.46m,0000000003Hz,0000133513c,0000000.290s, 005.4C,00002191
2016-02-04 23:31:46 r, 18.46m,0000000004Hz,0000133535c,0000000.290s, 005.4C,00002191
2016-02-04 23:41:45 r, 18.53m,0000000003Hz,0000142933c,0000000.310s, 005.4C,00002191
2016-02-04 23:51:46 r, 18.73m,0000000003Hz,0000169992c,0000000.369s, 005.4C,00002191
